Location: ???? ???? ?????
(31.2680°N, 31.7283°E)
Time: 19:49:18
(UTC+00:00)

OAO 2 Rocket - Pass Details

Date: 13 July 2020
Orbit: 676 x 746 km, 35.0° (Epoch: 05 August)

Event Time Altitude Azimuth Distance (km) Brightness Sun altitude
Rises 17:33:43 0° 286° (WNW) 3,118 8.5 -7.3°
Reaches altitude 10° 17:36:08 10° 288° (WNW) 2,208 7.4 -7.8°
Maximum altitude 17:41:20 72° 13° (NNE) 767 3.6 -8.7°
Drops below altitude 10° 17:46:37 10° 98° (E) 2,240 5.4 -9.7°
Enters shadow 17:46:42 10° 98° (E) 2,274 5.4 -9.7°
